Hourly Weather Lugovoy

Today, 20 June, Sunday

Time Temperature Precipitation Wind Pressure Humidity
00:00 +20°C° 0 mm 6 mps 754 mmHg 54%
01:00 +19°C° 0 mm 5 mps 754 mmHg 55%
02:00 +19°C° 0 mm 5 mps 754 mmHg 56%
03:00 +17°C° 0 mm 5 mps 753 mmHg 57%
04:00 +17°C° 0 mm 5 mps 753 mmHg 59%
05:00 +17°C° 0 mm 5 mps 753 mmHg 60%
06:00 +17°C° 0 mm 6 mps 753 mmHg 62%
07:00 +20°C° 0 mm 6 mps 753 mmHg 59%
08:00 +22°C° 0 mm 7 mps 753 mmHg 55%
09:00 +24°C° 0 mm 7 mps 753 mmHg 50%
10:00 +27°C° 0 mm 7 mps 753 mmHg 46%
11:00 +28°C° 0 mm 8 mps 752 mmHg 41%
12:00 +31°C° 0 mm 8 mps 752 mmHg 37%
13:00 +32°C° 0 mm 7 mps 752 mmHg 36%
14:00 +33°C° 0 mm 7 mps 752 mmHg 36%
15:00 +34°C° 0 mm 7 mps 751 mmHg 35%
16:00 +33°C° 0 mm 6 mps 751 mmHg 39%
17:00 +32°C° 0 mm 5 mps 750 mmHg 44%
18:00 +30°C° 0 mm 5 mps 750 mmHg 48%
19:00 +29°C° 0 mm 5 mps 750 mmHg 50%
20:00 +27°C° 0 mm 5 mps 751 mmHg 52%
21:00 +26°C° 0 mm 5 mps 751 mmHg 54%
22:00 +25°C° 0 mm 5 mps 751 mmHg 52%
23:00 +25°C° 0 mm 5 mps 751 mmHg 49%

Tomorrow, 21 June, Monday

Time Temperature Precipitation Wind Pressure Humidity
00:00 +23°C° 0 mm 4 mps 751 mmHg 47%
01:00 +23°C° 0 mm 4 mps 751 mmHg 47%
02:00 +22°C° 0 mm 4 mps 751 mmHg 48%
03:00 +21°C° 0 mm 4 mps 751 mmHg 48%
04:00 +21°C° 0 mm 4 mps 751 mmHg 51%
05:00 +21°C° 0 mm 4 mps 751 mmHg 53%
06:00 +21°C° 0 mm 5 mps 752 mmHg 56%
07:00 +23°C° 0 mm 5 mps 752 mmHg 51%
08:00 +24°C° 0 mm 6 mps 752 mmHg 46%
09:00 +27°C° 0 mm 7 mps 752 mmHg 42%
10:00 +29°C° 0 mm 7 mps 752 mmHg 38%
11:00 +30°C° 0 mm 7 mps 752 mmHg 35%
12:00 +33°C° 0 mm 8 mps 752 mmHg 31%
13:00 +34°C° 0 mm 7 mps 751 mmHg 31%
14:00 +35°C° 0 mm 7 mps 751 mmHg 31%
15:00 +35°C° 0 mm 6 mps 751 mmHg 31%
16:00 +35°C° 0 mm 6 mps 751 mmHg 34%
17:00 +34°C° 0 mm 5 mps 750 mmHg 37%
18:00 +33°C° 0 mm 5 mps 750 mmHg 40%
19:00 +29°C° 0 mm 4 mps 750 mmHg 44%
20:00 +27°C° 0 mm 4 mps 751 mmHg 47%
21:00 +25°C° 0 mm 4 mps 751 mmHg 50%
22:00 +25°C° 0 mm 4 mps 751 mmHg 48%
23:00 +23°C° 0 mm 4 mps 751 mmHg 47%

Day after tomorrow, 22 June, Tuesday

Time Temperature Precipitation Wind Pressure Humidity
00:00 +22°C° 0 mm 4 mps 751 mmHg 45%
01:00 +22°C° 0 mm 4 mps 751 mmHg 45%
02:00 +21°C° 0 mm 4 mps 751 mmHg 44%
03:00 +21°C° 0 mm 4 mps 751 mmHg 44%
04:00 +21°C° 0 mm 4 mps 751 mmHg 47%
05:00 +21°C° 0 mm 4 mps 751 mmHg 51%
06:00 +21°C° 0 mm 4 mps 751 mmHg 54%
07:00 +23°C° 0 mm 5 mps 751 mmHg 50%
08:00 +27°C° 0 mm 5 mps 752 mmHg 45%
09:00 +30°C° 0 mm 6 mps 752 mmHg 41%
10:00 +32°C° 0 mm 7 mps 751 mmHg 37%
11:00 +34°C° 0 mm 7 mps 751 mmHg 33%
12:00 +37°C° 0 mm 8 mps 751 mmHg 29%
13:00 +36°C° 0 mm 7 mps 751 mmHg 28%
14:00 +38°C° 0 mm 7 mps 751 mmHg 27%
15:00 +39°C° 0 mm 6 mps 750 mmHg 27%
16:00 +38°C° 0 mm 6 mps 750 mmHg 30%
17:00 +35°C° 0 mm 5 mps 750 mmHg 34%
18:00 +34°C° 0 mm 5 mps 749 mmHg 38%
19:00 +32°C° 0 mm 5 mps 750 mmHg 40%
20:00 +30°C° 0 mm 5 mps 750 mmHg 42%
21:00 +28°C° 0 mm 5 mps 750 mmHg 44%
22:00 +27°C° 0 mm 5 mps 750 mmHg 45%
23:00 +27°C° 0 mm 4 mps 750 mmHg 45%

23 June, Wednesday

Time Temperature Precipitation Wind Pressure Humidity
00:00 +26°C° 0 mm 4 mps 751 mmHg 45%
01:00 +25°C° 0 mm 4 mps 751 mmHg 44%
02:00 +25°C° 0 mm 3 mps 751 mmHg 43%
03:00 +24°C° 0 mm 3 mps 751 mmHg 43%
04:00 +23°C° 0 mm 4 mps 751 mmHg 47%
05:00 +23°C° 0 mm 4 mps 751 mmHg 51%
06:00 +23°C° 0 mm 4 mps 751 mmHg 55%
07:00 +26°C° 0 mm 4 mps 751 mmHg 53%
08:00 +28°C° 0 mm 5 mps 751 mmHg 51%
09:00 +29°C° 0 mm 5 mps 752 mmHg 49%
10:00 +32°C° 0 mm 5 mps 752 mmHg 43%
11:00 +33°C° 0 mm 6 mps 752 mmHg 38%
12:00 +35°C° 0 mm 6 mps 752 mmHg 33%
13:00 +36°C° 0 mm 6 mps 752 mmHg 32%
14:00 +36°C° 0 mm 6 mps 752 mmHg 31%
15:00 +38°C° 0 mm 7 mps 751 mmHg 30%
16:00 +36°C° 0 mm 6 mps 751 mmHg 33%
17:00 +35°C° 0 mm 5 mps 751 mmHg 36%
18:00 +34°C° 0 mm 5 mps 751 mmHg 39%
19:00 +32°C° 0 mm 5 mps 751 mmHg 41%
20:00 +29°C° 0 mm 5 mps 752 mmHg 44%
21:00 +27°C° 0 mm 4 mps 752 mmHg 47%
22:00 +27°C° 0 mm 4 mps 752 mmHg 45%
23:00 +26°C° 0 mm 4 mps 752 mmHg 43%

24 June, Thursday

Time Temperature Precipitation Wind Pressure Humidity
00:00 +25°C° 0 mm 4 mps 752 mmHg 42%
01:00 +25°C° 0 mm 3 mps 752 mmHg 42%
02:00 +24°C° 0 mm 3 mps 752 mmHg 41%
03:00 +24°C° 0 mm 3 mps 752 mmHg 41%
04:00 +22°C° 0 mm 3 mps 752 mmHg 45%
05:00 +22°C° 0 mm 3 mps 752 mmHg 48%
06:00 +22°C° 0 mm 3 mps 752 mmHg 52%
07:00 +25°C° 0 mm 3 mps 753 mmHg 47%
08:00 +27°C° 0 mm 3 mps 753 mmHg 43%
09:00 +29°C° 0 mm 4 mps 753 mmHg 38%
10:00 +32°C° 0 mm 4 mps 753 mmHg 34%
11:00 +33°C° 0 mm 4 mps 753 mmHg 30%
12:00 +35°C° 0 mm 5 mps 753 mmHg 26%
13:00 +35°C° 0 mm 5 mps 752 mmHg 25%
14:00 +36°C° 0 mm 5 mps 752 mmHg 24%
15:00 +37°C° 0 mm 5 mps 752 mmHg 23%
16:00 +36°C° 0 mm 4 mps 751 mmHg 28%
17:00 +35°C° 0 mm 3 mps 751 mmHg 33%
18:00 +34°C° 0 mm 2 mps 751 mmHg 37%
19:00 +33°C° 0 mm 3 mps 751 mmHg 38%
20:00 +30°C° 0 mm 3 mps 751 mmHg 39%
21:00 +28°C° 0 mm 4 mps 751 mmHg 40%
22:00 +28°C° 0 mm 4 mps 750 mmHg 39%
23:00 +27°C° 0 mm 4 mps 750 mmHg 39%

25 June, Friday

Time Temperature Precipitation Wind Pressure Humidity
00:00 +27°C° 0 mm 4 mps 750 mmHg 38%
01:00 +26°C° 0 mm 4 mps 750 mmHg 38%
02:00 +26°C° 0 mm 3 mps 750 mmHg 38%
03:00 +25°C° 0 mm 3 mps 750 mmHg 38%
04:00 +25°C° 0 mm 3 mps 750 mmHg 42%
05:00 +25°C° 0 mm 3 mps 750 mmHg 45%
06:00 +24°C° 0 mm 3 mps 751 mmHg 49%
07:00 +27°C° 0 mm 3 mps 751 mmHg 43%
08:00 +29°C° 0 mm 3 mps 751 mmHg 38%
09:00 +32°C° 0 mm 4 mps 751 mmHg 32%
10:00 +34°C° 0 mm 4 mps 750 mmHg 30%
11:00 +35°C° 0 mm 4 mps 750 mmHg 28%
12:00 +36°C° 0 mm 5 mps 750 mmHg 25%
13:00 +36°C° 0 mm 4 mps 750 mmHg 25%
14:00 +37°C° 0 mm 3 mps 750 mmHg 24%
15:00 +37°C° 0 mm 3 mps 749 mmHg 24%
16:00 +36°C° 0 mm 3 mps 749 mmHg 30%
17:00 +34°C° 0 mm 3 mps 749 mmHg 36%
18:00 +33°C° 0 mm 3 mps 749 mmHg 43%
19:00 +32°C° 0 mm 4 mps 749 mmHg 42%
20:00 +30°C° 0 mm 5 mps 749 mmHg 41%
21:00 +29°C° 0 mm 6 mps 749 mmHg 41%
22:00 +28°C° 0 mm 6 mps 748 mmHg 45%
23:00 +28°C° 0 mm 6 mps 748 mmHg 49%
Show more

We Need Your Consent

Meteoprog and our Service Providers may store and access personal data such as cookies, device identifiers or other similar technologies on your device and process such data to personalise content and ads, as well as provide social media features and to analyse the traffic.

  • Store and/or access information on your device

    Cookies, device identifiers or other information can be stored or accessed on your device for the purposes indicated above.

  • Personalised ads and content, ad and content measurement, audience insights, and products development

    Ads and content can be personalised based on a profile. More data can be added to better personalise ads and content. Ad and content performance can be measured. Insights about the audience who saw the ads and content can be derived. Such data can be used to develop or improve user’s experience, systems and software.

By clicking ‘I Agree’ you will allow the use of indicated cookies, device identifiers, web beacons or other similar technologies. Your settings can be changed in the browser on your device.

For certain purposes, legitimate interests may be relied on, rather than consent. You can read more about this in our Privacy and Cookie Policy.